Location: Peterborough
(44.3091°N, 78.3197°W)
Time: 17:35:44
(UTC-04:00)

Transit 2A - Pass Details

Date: 22 March 2023
Orbit: 591 x 964 km, 66.7° (Epoch: 04 June)

Event Time Altitude Azimuth Distance (km) Brightness Sun altitude
Rises 07:27:47 0° 222° (SW) 3,181 8.8 1.8°
Reaches altitude 10° 07:30:05 10° 226° (SW) 2,317 8.1 2.2°
Maximum altitude 07:35:22 60° 307° (NW) 957 6.4 3.1°
Drops below altitude 10° 07:41:16 10° 27° (NNE) 2,575 9.1 4.2°
Sets 07:43:57 0° 31° (NNE) 3,564 9.8 4.7°
